Temperature
14 15 15 15 14 14 14 14 14 15 14 14 14 14 14 14 14 14 14 14 14 14 14 14 14 14 14 14 14 14 14 14 14 14 15 15 15 15 15 15 15 14 15
15 15 15 14 14 14 14 14 14 14 14 14 14 14 14 14 14 14 14 14 14 14 14 14 14 14 14 14 14 14 14 14 14 14 14 14 14 14 14 14 14 14 14
15 14 14 14 14 14 14 14 14 14 14 14 14 14 14 14 14 14 13 13 13 14 14 14 14 14 14 14 14 14 14 14 14 14 14 14 14 14 14 14 14 14 14
15 14 14 14 14 14 14 14 14 14 14 14 14 13 13 13 13 13 13 13 13 13 13 13 13 13 13 13 13 13 14 14 14 14 14 14 14 14 14 14 14 14 14
14 14 14 14 14 14 14 14 14 14 14 14 13 13 13 13 13 13 13 13 13 13 13 13 13 13 13 13 13 13 13 13 14 14 13 13 13 13 13 13 13 13 13
14 14 14 14 13 13 13 13 13 13 13 13 13 13 13 13 13 13 13 13 13 12 12 12 12 12 12 12 12 13 13 13 13 13 13 13 13 13 13 13 13 13 13
14 14 14 13 13 13 13 13 13 13 13 13 13 12 12 13 12 12 12 12 12 12 12 12 12 12 12 12 12 12 12 13 13 13 13 12 12 12 13 13 13 13 13
14 13 13 13 13 13 13 13 13 13 13 13 13 12 12 12 12 12 12 12 12 12 12 11 12 12 12 12 12 12 12 12 12 12 12 12 12 12 12 12 12 12 12
13 13 13 13 13 13 13 13 13 12 12 12 12 12 12 12 12 12 12 12 11 11 11 11 11 11 11 11 11 11 12 12 12 12 12 11 11 12 12 12 12 12 12
12 12 12 12 12 12 12 12 12 12 12 12 12 12 12 12 12 12 12 11 11 11 11 11 11 11 11 11 11 11 11 11 11 11 11 11 11 11 11 11 12 12 12
12 12 12 12 12 12 12 12 12 12 12 12 12 12 12 11 11 11 11 11 11 11 11 11 11 11 11 11 11 11 11 11 11 11 11 11 11 11 11 11 11 11 11
11 11 11 11 12 12 12 11 11 11 11 11 11 11 11 11 11 11 11 11 11 11 11 10 10 11 11 10 10 10 10 10 10 10 10 10 10 10 11 11 11 11 11
11 11 11 11 11 11 11 11 11 11 11 11 11 11 11 11 11 11 11 10 10 10 10 10 10 10 10 10 10 10 10 10 10 10 10 10 10 10 10 10 10 10 10
11 11 10 11 11 11 11 11 11 11 11 11 10 10 10 10 10 10 10 10 10 10 10 10 10 10 10 10 10 9 10 10 9 9 9 9 9 9 10 10 10 10 10
10 10 10 10 10 10 10 10 10 10 10 10 10 10 10 10 10 10 10 10 9 9 9 9 9 9 9 9 9 9 9 9 9 9 9 9 9 9 9 9 9 9 9
10 10 10 10 10 10 10 10 10 10 10 10 10 10 10 10 10 10 9 9 9 9 9 9 9 9 9 9 9 8 8 9 8 8 8 8 8 8 8 8 8 8 8
10 9 9 9 9 9 9 9 9 9 9 9 9 9 9 9 9 9 9 9 9 8 8 8 8 8 8 8 8 8 8 8 8 8 8 8 8 8 8 8 8 8 8
9 9 9 9 9 9 9 9 9 9 9 9 9 9 9 9 9 9 8 8 8 8 8 8 8 8 8 8 8 7 7 7 7 7 7 7 7 7 7 7 7 7 7
9 9 9 8 8 8 8 8 8 8 8 8 8 8 8 8 8 8 8 8 8 8 7 7 7 7 7 7 7 7 7 7 7 6 6 6 7 7 7 7 7 7 7
8 8 8 8 8 8 7 8 8 8 7 7 8 8 8 7 8 8 8 7 7 7 7 7 7 7 7 7 6 6 6 6 6 6 6 6 6 6 6 6 6 6 6
7 7 7 7 7 7 7 7 7 7 7 7 7 7 7 7 7 7 7 7 7 7 7 6 6 6 6 6 6 5 5 5 5 5 5 5 5 5 5 5 6 6 6
6 7 7 7 7 7 7 6 7 7 7 6 7 6 7 7 7 7 7 6 6 6 6 6 6 6 5 5 5 5 4 4 4 5 5 5 5 5 5 5 5 5 5
6 6 6 6 6 6 6 6 6 6 6 6 6 6 6 6 6 6 6 6 6 6 6 6 6 6 6 5 5 5 4 4 3 4 4 4 4 4 4 4 4 4 4
5 5 6 6 6 6 5 5 5 5 6 6 6 6 5 5 5 6 6 5 5 5 5 5 5 5 5 5 5 5 5 5 4 3 3 3 3 4 4 4 4 4 4
4 5 5 5 5 5 5 5 5 5 5 5 5 5 5 5 5 5 5 5 5 5 5 5 5 5 5 5 5 5 4 4 4 4 3 3 3 3 3 3 3 3 3
4 4 4 4 4 4 4 4 4 4 4 4 4 4 4 4 4 4 4 4 4 4 4 4 4 4 4 4 4 4 4 4 4 4 3 3 2 2 2 2 3 3 3
Wind_Speed
6 9 15 15 16 16 16 16 16 16 16 16 16 16 16 16 16 16 16 17 17 17 18 18 19 19 20 20 20 20 20 20 20 20 20 20 20 20 20 20 19 18 20
9 13 16 17 17 17 17 16 16 16 15 15 15 15 15 16 15 15 16 16 17 17 18 18 18 18 19 19 19 19 19 20 20 20 19 18 19 19 19 19 19 17 19
11 13 16 17 18 18 17 16 16 16 15 15 15 15 15 15 15 15 16 16 17 17 17 17 18 18 19 19 19 19 19 19 19 19 17 16 17 19 19 19 20 19 19
13 14 15 18 18 18 17 17 16 16 15 15 15 15 15 15 15 15 16 16 16 16 17 17 17 18 18 18 19 19 19 19 19 17 16 15 15 18 19 19 19 19 18
11 13 16 18 18 18 17 17 16 16 16 15 15 15 15 15 15 15 16 16 16 16 16 17 17 17 17 18 18 19 19 19 18 17 16 15 14 17 18 18 18 18 18
10 13 16 18 18 18 17 16 16 16 15 15 15 15 15 15 15 15 15 15 16 16 16 16 17 17 17 18 18 19 18 18 17 16 16 15 14 16 17 17 17 17 17
9 12 16 18 18 17 17 16 16 15 15 15 14 14 15 14 15 15 15 15 16 16 16 16 16 17 17 18 18 18 18 18 17 16 15 14 15 16 16 16 16 16 16
10 11 14 17 17 17 16 16 15 15 14 14 14 14 14 15 15 15 15 15 15 16 16 16 16 17 17 18 18 18 17 16 15 15 14 14 15 16 16 16 15 15 15
10 10 11 13 15 16 16 15 15 15 14 14 14 14 14 15 15 14 15 15 15 15 16 16 17 17 18 18 18 18 17 16 15 13 12 12 14 15 15 15 15 14 14
7 8 9 11 12 12 13 15 15 14 14 14 14 14 15 14 14 14 14 15 15 15 15 16 17 17 17 17 18 18 17 15 14 13 11 12 14 14 14 14 14 14 14
7 6 8 9 10 11 11 13 14 14 14 14 14 14 14 13 13 13 14 14 14 14 15 15 16 17 17 17 17 16 15 13 13 12 11 12 13 13 13 14 14 14 14
8 6 6 8 9 10 9 10 11 11 12 12 12 13 13 13 12 12 14 14 13 13 14 14 15 14 14 13 14 14 13 13 12 11 11 12 12 12 13 13 13 13 14
8 7 6 8 9 9 8 8 8 9 10 11 12 12 13 12 11 11 11 11 11 12 11 12 12 12 11 11 11 12 12 12 11 11 11 12 11 12 12 12 13 12 13
7 7 5 6 8 8 9 8 8 8 8 8 10 12 11 9 9 9 8 9 9 10 10 10 10 11 12 12 12 12 12 11 11 11 11 11 11 11 11 12 12 12 12
7 6 6 6 6 7 8 7 7 7 8 9 10 10 11 9 8 8 8 8 9 10 10 10 10 11 10 11 11 11 10 11 11 10 11 12 11 11 11 11 11 11 11
7 7 6 6 6 7 6 6 7 8 8 9 9 10 11 10 9 8 8 8 8 9 10 10 10 9 9 9 10 10 10 10 11 11 11 12 12 11 11 11 10 10 10
7 7 6 6 6 5 6 7 7 8 8 8 8 11 11 11 10 9 7 7 8 10 11 11 11 10 8 8 8 9 9 10 10 11 11 11 11 11 10 10 10 9 9
6 6 6 5 5 5 5 6 6 8 8 7 8 10 11 12 11 9 7 7 9 10 9 8 7 6 5 5 5 5 7 8 9 10 10 10 10 10 10 10 10 9 8
5 6 6 5 5 5 5 5 6 7 7 7 8 8 9 11 11 10 8 8 11 9 7 7 5 5 6 5 5 5 5 6 6 8 9 9 9 9 9 9 10 9 8
4 5 5 5 5 4 4 4 4 4 5 6 7 8 9 9 10 9 8 8 10 7 6 6 6 5 5 6 6 5 4 5 5 6 6 7 8 8 8 8 8 8 8
3 4 4 5 5 5 4 3 4 5 4 4 5 7 9 9 10 9 8 8 7 6 7 8 7 7 5 5 5 4 4 4 4 4 5 5 6 6 7 7 7 7 6
4 3 4 5 5 5 4 3 2 4 3 4 4 6 8 9 9 8 8 7 7 6 7 7 8 5 4 4 4 4 2 2 3 3 2 2 3 4 5 5 5 6 6
3 4 4 4 5 4 4 3 2 2 2 2 3 4 6 9 9 9 9 8 7 7 7 8 8 7 6 3 2 4 4 3 1 2 2 1 1 2 3 3 4 4 4
3 3 3 4 5 5 5 5 5 4 4 4 4 4 5 8 9 9 9 9 8 7 7 8 7 5 7 6 2 1 2 4 3 1 2 1 1 0 0 1 2 2 3
2 2 2 3 4 4 5 6 6 5 3 2 3 4 4 4 6 8 9 8 8 7 7 7 6 6 6 6 4 3 2 1 2 3 2 2 1 1 1 2 2 3 3
0 1 1 2 3 4 5 5 5 6 4 4 5 5 5 3 4 6 7 8 7 7 7 8 7 7 6 6 4 4 4 3 3 3 3 2 2 2 2 2 2 3 3
Wind_Direction
170 168 155 146 138 132 126 121 116 112 108 105 103 101 99 96 94 91 89 86 85 83 83 82 82 82 81 78 77 75 74 72 70 70 72 74 76 77 76 75 76 77 80
158 161 152 146 140 133 127 123 119 115 111 108 105 104 102 99 97 95 92 89 87 85 84 84 83 82 81 80 78 75 75 74 71 69 69 72 75 77 77 76 78 81 82
146 152 147 144 140 135 129 125 122 117 114 111 107 105 103 100 100 98 95 92 89 87 85 84 83 83 83 81 80 78 76 75 71 67 66 68 74 78 79 78 78 80 81
142 145 144 142 140 136 131 127 124 120 116 113 109 106 104 102 100 99 96 93 91 89 87 85 85 84 83 82 82 81 79 75 68 65 63 64 73 78 78 79 78 79 81
135 141 143 142 140 136 132 129 126 121 118 114 110 107 105 103 101 99 97 95 93 91 90 88 86 85 83 83 83 82 80 75 68 65 64 64 71 77 77 78 78 78 80
134 138 143 142 140 137 133 131 128 124 121 117 114 111 109 106 105 102 100 99 97 94 93 91 87 86 85 86 85 84 81 75 68 65 63 64 71 77 77 77 78 78 78
138 140 144 141 139 137 135 134 130 128 125 121 118 115 113 110 108 106 104 101 99 96 94 92 88 88 87 87 87 86 82 76 71 66 62 64 72 75 76 77 77 77 76
137 135 140 143 140 136 135 134 133 131 128 126 123 119 116 114 112 110 108 104 101 99 96 92 91 90 87 86 85 84 81 77 74 69 64 66 73 75 74 75 76 77 77
127 127 129 135 136 136 134 133 133 131 130 128 125 121 118 116 115 112 110 108 104 102 98 95 94 92 88 87 85 82 79 75 72 69 68 70 75 76 76 75 76 77 78
119 124 127 128 129 130 133 134 132 131 130 128 125 120 118 116 115 114 111 109 107 103 98 96 95 93 89 87 84 81 77 73 71 70 70 76 77 78 78 77 77 78 78
119 125 127 127 128 128 130 134 131 129 129 127 124 120 116 111 109 110 111 110 108 105 101 97 95 92 88 84 80 77 74 72 70 69 73 79 80 81 80 79 78 78 78
145 139 136 132 131 128 128 127 124 125 124 122 124 122 118 115 113 113 111 111 108 104 102 99 95 88 84 80 75 75 73 68 67 68 75 80 82 84 83 81 80 79 79
153 145 140 140 134 131 127 125 118 119 119 121 123 124 121 115 113 111 108 105 101 98 95 93 86 83 83 80 77 77 73 68 66 67 74 80 82 85 86 85 82 81 79
147 147 141 135 139 137 134 132 129 125 125 126 129 130 127 119 115 115 110 108 104 102 98 93 90 88 83 82 83 79 74 72 66 64 70 77 81 87 90 89 86 83 80
150 150 150 139 142 144 139 139 137 135 135 136 136 137 136 131 129 123 117 113 111 110 107 101 97 93 87 82 81 79 74 73 70 67 67 71 77 83 88 89 88 86 82
160 159 155 150 143 147 148 147 146 143 140 140 141 144 142 140 139 133 127 121 120 120 115 111 108 100 92 88 80 76 74 72 70 67 66 67 69 74 81 84 84 84 83
168 164 162 159 147 146 150 151 149 148 145 146 148 147 145 144 144 141 135 131 132 129 120 112 105 101 96 90 81 74 72 70 70 68 67 66 66 66 71 78 78 81 81
160 163 163 157 153 151 154 152 152 151 146 147 150 150 148 148 147 141 139 139 138 131 123 117 112 108 99 95 85 71 69 70 68 70 69 67 68 66 66 70 71 73 78
159 162 161 153 157 159 152 154 151 150 147 148 148 147 152 154 151 144 143 146 143 134 127 128 118 119 115 103 91 73 62 65 66 71 70 67 69 70 68 66 66 65 72
145 149 156 159 158 154 147 148 144 140 148 151 154 154 154 157 155 147 142 145 147 141 138 135 130 119 122 119 99 72 49 52 59 66 70 70 71 72 74 70 67 63 64
133 143 150 160 163 153 157 171 172 175 176 168 160 160 160 160 157 152 149 148 152 155 155 148 138 130 128 127 105 79 38 35 43 46 63 71 68 71 78 75 73 68 60
163 171 169 168 171 169 174 180 184 173 181 178 164 166 166 164 164 159 155 160 161 154 152 154 148 145 156 156 136 127 100 20 9 12 30 65 68 76 78 80 84 78 70
184 190 191 187 175 172 167 148 130 133 137 164 181 183 177 175 171 167 166 166 168 167 170 170 169 160 167 186 164 147 152 187 221 340 351 7 70 79 79 89 95 93 86
211 203 191 187 175 171 164 164 163 178 186 199 192 189 183 182 179 174 172 171 174 175 177 181 177 172 166 172 173 157 146 150 156 167 319 326 336 334 150 133 116 115 110
200 189 186 188 182 176 174 180 179 189 200 182 170 172 180 184 186 180 177 177 178 179 181 182 182 180 178 177 172 157 133 115 139 160 203 259 303 287 250 199 168 154 148
124 178 177 179 194 187 183 186 192 191 186 177 181 185 187 190 187 185 181 184 185 183 186 188 187 188 190 183 180 172 166 167 177 167 182 215 245 274 276 238 200 183 176
Height
1523 1526 1528 1530 1532 1533 1535 1536 1537 1538 1538 1539 1539 1540 1541 1541 1542 1542 1542 1543 1543 1543 1543 1544 1544 1544 1544 1544 1544 1544 1545 1545 1545 1546 1546 1546 1547 1547 1547 1547 1547 1548 1548
1522 1525 1527 1530 1532 1533 1535 1536 1537 1538 1539 1540 1540 1541 1541 1542 1543 1543 1544 1544 1544 1544 1545 1545 1545 1545 1545 1545 1546 1546 1547 1547 1547 1548 1548 1548 1549 1549 1549 1550 1550 1550 1550
1522 1525 1527 1529 1531 1533 1535 1536 1538 1539 1540 1540 1541 1542 1542 1543 1543 1544 1545 1545 1545 1546 1546 1546 1546 1547 1547 1547 1547 1548 1548 1549 1549 1550 1550 1550 1551 1551 1552 1552 1552 1553 1553
1522 1525 1527 1529 1531 1533 1535 1536 1538 1539 1540 1541 1542 1542 1543 1544 1544 1545 1545 1546 1546 1547 1547 1547 1548 1548 1548 1548 1549 1549 1550 1550 1551 1551 1551 1552 1553 1553 1553 1554 1554 1554 1555
1522 1525 1527 1529 1531 1533 1535 1536 1538 1539 1540 1541 1542 1543 1544 1544 1545 1546 1546 1547 1547 1548 1548 1548 1549 1549 1550 1550 1551 1551 1551 1552 1553 1553 1553 1554 1554 1555 1555 1556 1556 1556 1556
1522 1524 1527 1529 1531 1533 1535 1536 1538 1539 1540 1542 1542 1543 1544 1545 1546 1546 1547 1547 1548 1548 1549 1549 1550 1550 1551 1551 1552 1552 1553 1554 1554 1554 1555 1556 1556 1557 1557 1557 1557 1558 1558
1521 1524 1526 1529 1531 1533 1534 1536 1538 1539 1541 1542 1543 1544 1544 1545 1546 1547 1547 1548 1549 1549 1550 1550 1551 1551 1552 1552 1553 1553 1554 1555 1555 1556 1556 1557 1557 1558 1558 1558 1558 1559 1559
1521 1524 1526 1528 1530 1532 1534 1536 1538 1539 1540 1541 1543 1544 1545 1546 1546 1547 1548 1549 1549 1550 1550 1551 1552 1552 1553 1553 1554 1554 1555 1555 1556 1556 1557 1558 1558 1559 1559 1559 1559 1560 1560
1521 1523 1525 1528 1530 1532 1533 1535 1537 1539 1540 1541 1543 1544 1545 1546 1547 1548 1548 1549 1550 1550 1551 1551 1552 1553 1553 1554 1554 1555 1555 1556 1557 1557 1558 1558 1559 1560 1560 1560 1560 1560 1561
1521 1523 1525 1527 1529 1531 1533 1535 1537 1538 1540 1541 1542 1543 1545 1546 1547 1548 1548 1549 1550 1551 1551 1552 1552 1553 1554 1554 1555 1555 1556 1556 1557 1558 1558 1559 1560 1560 1560 1561 1561 1561 1561
1520 1522 1524 1526 1528 1530 1532 1534 1536 1537 1539 1540 1542 1543 1544 1545 1546 1547 1548 1549 1550 1551 1551 1552 1553 1553 1554 1555 1555 1556 1557 1557 1558 1558 1559 1560 1560 1561 1561 1561 1561 1562 1562
1517 1520 1523 1524 1526 1529 1531 1533 1535 1536 1538 1539 1541 1542 1543 1545 1546 1547 1548 1549 1550 1551 1551 1552 1553 1554 1554 1555 1556 1556 1557 1558 1558 1558 1559 1560 1561 1561 1561 1561 1561 1562 1562
1516 1518 1521 1523 1525 1527 1529 1531 1533 1535 1536 1538 1540 1541 1542 1544 1545 1546 1547 1548 1549 1550 1551 1552 1553 1554 1555 1555 1556 1557 1557 1558 1558 1558 1559 1560 1561 1561 1561 1561 1562 1562 1562
1514 1517 1519 1521 1523 1525 1527 1529 1531 1533 1535 1536 1538 1540 1541 1542 1544 1545 1546 1548 1549 1550 1551 1552 1553 1554 1555 1555 1556 1557 1557 1558 1558 1558 1559 1560 1560 1561 1561 1561 1562 1562 1562
1511 1514 1517 1519 1521 1523 1525 1527 1529 1531 1532 1534 1536 1538 1539 1541 1542 1544 1545 1546 1548 1549 1550 1551 1552 1553 1554 1555 1556 1557 1557 1557 1558 1558 1558 1559 1560 1561 1561 1561 1561 1562 1562
1509 1512 1514 1516 1518 1521 1523 1525 1526 1528 1530 1532 1534 1536 1537 1539 1540 1542 1543 1545 1546 1548 1549 1550 1551 1552 1553 1554 1555 1556 1557 1557 1558 1558 1558 1559 1560 1560 1561 1561 1561 1562 1562
1507 1509 1512 1514 1516 1518 1520 1522 1524 1526 1527 1529 1531 1533 1535 1537 1538 1540 1541 1543 1545 1546 1548 1549 1550 1551 1553 1554 1554 1556 1556 1557 1557 1558 1558 1559 1559 1560 1560 1561 1561 1561 1562
1504 1507 1509 1511 1513 1515 1517 1519 1521 1523 1525 1527 1528 1530 1532 1534 1536 1537 1539 1541 1543 1544 1546 1547 1548 1550 1551 1552 1553 1554 1555 1556 1557 1557 1558 1559 1559 1559 1560 1560 1560 1561 1561
1501 1503 1506 1508 1510 1512 1514 1517 1518 1520 1522 1524 1526 1527 1529 1531 1533 1535 1536 1538 1540 1542 1544 1545 1547 1548 1549 1551 1552 1553 1554 1555 1556 1557 1557 1558 1558 1559 1559 1559 1559 1560 1560
1498 1500 1502 1505 1507 1509 1510 1513 1515 1517 1519 1521 1522 1524 1526 1528 1530 1531 1533 1535 1537 1539 1540 1542 1544 1546 1547 1549 1550 1552 1553 1554 1555 1555 1556 1556 1557 1558 1558 1558 1559 1559 1559
1495 1497 1498 1501 1503 1505 1506 1508 1510 1512 1515 1517 1519 1521 1523 1525 1527 1528 1530 1532 1534 1536 1537 1539 1541 1543 1544 1546 1548 1549 1551 1552 1553 1554 1554 1555 1555 1556 1557 1557 1557 1557 1558
1491 1493 1494 1497 1499 1501 1504 1505 1508 1510 1512 1514 1516 1518 1519 1521 1523 1525 1526 1528 1530 1532 1534 1536 1537 1539 1541 1543 1545 1546 1548 1551 1550 1551 1552 1553 1553 1554 1554 1555 1555 1556 1556
1488 1489 1491 1493 1495 1497 1500 1502 1504 1506 1508 1510 1511 1513 1515 1517 1519 1521 1523 1525 1527 1528 1530 1532 1534 1535 1537 1539 1542 1543 1544 1545 1547 1548 1549 1550 1551 1551 1552 1553 1553 1554 1554
1485 1487 1488 1490 1492 1494 1496 1497 1499 1500 1502 1504 1506 1509 1511 1514 1515 1517 1519 1520 1522 1524 1526 1528 1530 1532 1534 1535 1538 1540 1541 1542 1544 1544 1546 1547 1548 1548 1549 1550 1551 1551 1551
1482 1483 1485 1486 1488 1490 1491 1494 1495 1497 1499 1501 1502 1505 1507 1509 1511 1513 1514 1516 1518 1520 1522 1524 1526 1528 1530 1531 1533 1535 1537 1538 1539 1541 1541 1543 1544 1545 1546 1547 1547 1548 1548
1479 1480 1481 1483 1484 1486 1488 1490 1491 1493 1495 1497 1498 1500 1502 1504 1506 1508 1510 1512 1514 1516 1518 1520 1522 1524 1526 1528 1530 1531 1532 1534 1535 1537 1537 1538 1540 1541 1542 1543 1544 1544 1545